Погода в Кильмези

Россия / Кировская область     56°56′37″N   51°03′59″E
темп.,
°C
ветер,
м/с
пор.,
м/с
влажн.,
%
обл.,
%
осадки,
мм/ч
давл.,
гПа
погр.,
м
2 июля, сб
сб200:00+10св239463 0.0 101758
03:00+9ссв2291100 0.0 101739
06:00+13ссв247495 0.0 1017195
09:00+19ссв23485 0.0 10161248
12:00+22с234027 0.0 10152172
15:00+22с4339100 0.0 10142291
18:00+19с366099 0.0 1013360
21:00+15св1275100 0.0 101425
3 июля, вс
вс300:00+14ссв117999 0.0 101411
03:00+13ссв2475100 0.0 101392
06:00+14ссв2577100 0.0 1013243
09:00+16ссв3571100 0.0 1013656
12:00+18ссв4676100 0.5 1013772
15:00+20ссв5655100 0.7 10121703
18:00+17ссв3766100 0.0 10121029
21:00+12с258318 0.0 101388
4 июля, пн
пн400:00+14ссв237598 0.0 101387
03:00+11св24904 0.0 101371
06:00+15ссв366815 0.0 1014292
09:00+20ссв4847100 0.0 10141495
12:00+22св464398 0.0 10142333
15:00+20св3657100 0.0 1014925
18:00+19с2466100 0.0 1015299
21:00+16сз2273100 0.0 101546
5 июля, вт
вт500:00+15ссз277123 0.0 1015155
03:00+11с228796 0.0 101714
06:00+16ссв1269100 0.0 1017173
09:00+21с1348100 0.0 1017750
12:00+25ссз233418 0.0 10161967
15:00+25ссз33324 0.0 10152084
18:00+22с24585 0.0 1015174
21:00+15зсз11775 0.0 101611
6 июля, ср
ср600:00+14з22785 0.0 101613
03:00+13з22900 0.0 101621
06:00+18з23680 0.0 1016175
09:00+25зюз23480 0.0 1015653
12:00+28з34410 0.0 10151969
15:00+29з344024 0.0 10142550
18:00+25з36613 0.0 1014386
21:00+19зюз22840 0.0 101517